When you browse on this site, cookies collect data to enhance your experience and personalize the content and advertising you see.
Visit our Privacy Policy to learn more. By continuing to use the site, you agree to this use of cookies and data.
  • In Austria
  • List of Countries
  • For 7 days
  • Water Temperature
  • Weather Map
  • News
  • Weather Widgets
  • user-avatar
    Login

    Hourly Weather Luanda

    Today, 6 December, Friday

    Time Temperature Precipitation Wind Pressure Humidity
    00:00 +28°C° 0 mm 3 mps 753 mmHg 82%
    01:00 +27°C° 0 mm 3 mps 753 mmHg 84%
    02:00 +27°C° 0.1 mm 3 mps 752 mmHg 84%
    03:00 +27°C° 0.1 mm 2 mps 752 mmHg 84%
    04:00 +27°C° 0.1 mm 2 mps 752 mmHg 85%
    05:00 +27°C° 0.1 mm 2 mps 753 mmHg 82%
    06:00 +28°C° 0.1 mm 2 mps 753 mmHg 80%
    07:00 +28°C° 0.1 mm 1 mps 754 mmHg 78%
    08:00 +30°C° 0.1 mm 1 mps 754 mmHg 71%
    09:00 +31°C° 0.1 mm 1 mps 754 mmHg 64%
    10:00 +33°C° 0.1 mm 1 mps 754 mmHg 57%
    11:00 +34°C° 0.1 mm 2 mps 753 mmHg 57%
    12:00 +34°C° 0.1 mm 3 mps 752 mmHg 57%
    13:00 +34°C° 0.1 mm 3 mps 752 mmHg 57%
    14:00 +33°C° 0 mm 4 mps 751 mmHg 59%
    15:00 +33°C° 0 mm 4 mps 751 mmHg 61%
    16:00 +33°C° 0 mm 4 mps 750 mmHg 62%
    17:00 +32°C° 0 mm 4 mps 751 mmHg 67%
    18:00 +30°C° 0 mm 4 mps 751 mmHg 71%
    19:00 +29°C° 0 mm 3 mps 752 mmHg 75%
    20:00 +28°C° 0 mm 3 mps 752 mmHg 75%
    21:00 +28°C° 0 mm 3 mps 753 mmHg 76%
    22:00 +28°C° 0 mm 3 mps 753 mmHg 76%
    23:00 +28°C° 0 mm 3 mps 753 mmHg 76%

    Tomorrow, 7 December, Saturday

    Time Temperature Precipitation Wind Pressure Humidity
    00:00 +28°C° 0 mm 3 mps 753 mmHg 76%
    01:00 +28°C° 0 mm 3 mps 753 mmHg 76%
    02:00 +28°C° 0 mm 3 mps 753 mmHg 75%
    03:00 +28°C° 0 mm 3 mps 752 mmHg 74%
    04:00 +28°C° 0 mm 3 mps 752 mmHg 73%
    05:00 +28°C° 0 mm 3 mps 753 mmHg 72%
    06:00 +28°C° 0 mm 3 mps 753 mmHg 71%
    07:00 +28°C° 0 mm 3 mps 753 mmHg 71%
    08:00 +30°C° 0 mm 2 mps 753 mmHg 65%
    09:00 +31°C° 0 mm 2 mps 753 mmHg 59%
    10:00 +32°C° 0 mm 2 mps 753 mmHg 53%
    11:00 +33°C° 0 mm 3 mps 753 mmHg 52%
    12:00 +34°C° 0 mm 3 mps 752 mmHg 51%
    13:00 +34°C° 0 mm 4 mps 752 mmHg 49%
    14:00 +34°C° 0 mm 4 mps 751 mmHg 51%
    15:00 +33°C° 0 mm 5 mps 751 mmHg 53%
    16:00 +33°C° 0 mm 5 mps 750 mmHg 55%
    17:00 +32°C° 0 mm 5 mps 751 mmHg 60%
    18:00 +30°C° 0 mm 4 mps 752 mmHg 66%
    19:00 +29°C° 0 mm 4 mps 752 mmHg 71%
    20:00 +28°C° 0 mm 4 mps 753 mmHg 73%
    21:00 +28°C° 0 mm 4 mps 753 mmHg 75%
    22:00 +28°C° 0 mm 4 mps 753 mmHg 76%
    23:00 +28°C° 0.3 mm 4 mps 753 mmHg 78%

    Day after tomorrow, 8 December, Sunday

    Time Temperature Precipitation Wind Pressure Humidity
    00:00 +27°C° 0.3 mm 4 mps 753 mmHg 79%
    01:00 +27°C° 0.3 mm 4 mps 753 mmHg 81%
    02:00 +27°C° 0.5 mm 4 mps 753 mmHg 82%
    03:00 +27°C° 0.5 mm 5 mps 752 mmHg 82%
    04:00 +26°C° 0.5 mm 5 mps 752 mmHg 82%
    05:00 +27°C° 0.1 mm 4 mps 753 mmHg 81%
    06:00 +27°C° 0.1 mm 4 mps 753 mmHg 79%
    07:00 +27°C° 0.1 mm 3 mps 753 mmHg 78%
    08:00 +29°C° 0 mm 3 mps 753 mmHg 71%
    09:00 +30°C° 0 mm 2 mps 753 mmHg 64%
    10:00 +32°C° 0 mm 2 mps 753 mmHg 57%
    11:00 +33°C° 0 mm 3 mps 753 mmHg 55%
    12:00 +33°C° 0 mm 4 mps 752 mmHg 54%
    13:00 +34°C° 0 mm 5 mps 752 mmHg 53%
    14:00 +33°C° 0 mm 5 mps 751 mmHg 54%
    15:00 +33°C° 0 mm 6 mps 751 mmHg 55%
    16:00 +32°C° 0 mm 7 mps 751 mmHg 56%
    17:00 +30°C° 0 mm 7 mps 751 mmHg 62%
    18:00 +29°C° 0 mm 6 mps 752 mmHg 67%
    19:00 +28°C° 0 mm 6 mps 752 mmHg 73%
    20:00 +27°C° 0 mm 6 mps 753 mmHg 75%
    21:00 +27°C° 0 mm 5 mps 753 mmHg 77%
    22:00 +26°C° 0 mm 5 mps 753 mmHg 78%
    23:00 +26°C° 0 mm 4 mps 753 mmHg 79%

    9 December, Monday

    Time Temperature Precipitation Wind Pressure Humidity
    00:00 +26°C° 0 mm 3 mps 753 mmHg 80%
    01:00 +26°C° 0 mm 3 mps 753 mmHg 81%
    02:00 +26°C° 0 mm 2 mps 753 mmHg 79%
    03:00 +26°C° 0 mm 2 mps 753 mmHg 78%
    04:00 +26°C° 0 mm 2 mps 752 mmHg 77%
    05:00 +26°C° 0 mm 2 mps 753 mmHg 75%
    06:00 +26°C° 0 mm 2 mps 753 mmHg 74%
    07:00 +27°C° 0 mm 2 mps 753 mmHg 73%
    08:00 +28°C° 0 mm 2 mps 753 mmHg 68%
    09:00 +29°C° 0 mm 2 mps 754 mmHg 63%
    10:00 +30°C° 0 mm 1 mps 754 mmHg 59%
    11:00 +31°C° 0 mm 2 mps 753 mmHg 55%
    12:00 +33°C° 0 mm 3 mps 753 mmHg 51%
    13:00 +34°C° 0 mm 5 mps 752 mmHg 47%
    14:00 +33°C° 0 mm 5 mps 752 mmHg 50%
    15:00 +32°C° 0 mm 5 mps 751 mmHg 53%
    16:00 +30°C° 0 mm 6 mps 751 mmHg 56%
    17:00 +29°C° 0 mm 5 mps 751 mmHg 59%
    18:00 +28°C° 0 mm 5 mps 751 mmHg 63%
    19:00 +27°C° 0 mm 5 mps 752 mmHg 66%
    20:00 +27°C° 0 mm 4 mps 752 mmHg 67%
    21:00 +27°C° 0 mm 4 mps 753 mmHg 69%
    22:00 +26°C° 0 mm 3 mps 754 mmHg 70%
    23:00 +26°C° 0 mm 3 mps 754 mmHg 72%

    10 December, Tuesday

    Time Temperature Precipitation Wind Pressure Humidity
    00:00 +26°C° 0 mm 3 mps 754 mmHg 74%
    01:00 +26°C° 0 mm 2 mps 754 mmHg 75%
    02:00 +26°C° 0 mm 2 mps 753 mmHg 76%
    03:00 +25°C° 0 mm 2 mps 753 mmHg 77%
    04:00 +25°C° 0 mm 2 mps 753 mmHg 77%
    05:00 +25°C° 0 mm 3 mps 753 mmHg 76%
    06:00 +26°C° 0 mm 3 mps 753 mmHg 75%
    07:00 +26°C° 0 mm 3 mps 754 mmHg 73%
    08:00 +27°C° 0 mm 3 mps 754 mmHg 68%
    09:00 +28°C° 0 mm 2 mps 754 mmHg 63%
    10:00 +29°C° 0 mm 2 mps 754 mmHg 58%
    11:00 +31°C° 0 mm 2 mps 753 mmHg 54%
    12:00 +33°C° 0 mm 3 mps 753 mmHg 50%
    13:00 +34°C° 0 mm 4 mps 752 mmHg 46%
    14:00 +34°C° 0 mm 5 mps 752 mmHg 49%
    15:00 +33°C° 0 mm 5 mps 751 mmHg 53%
    16:00 +32°C° 0 mm 6 mps 751 mmHg 56%
    17:00 +30°C° 0 mm 5 mps 751 mmHg 61%
    18:00 +28°C° 0 mm 5 mps 751 mmHg 66%
    19:00 +27°C° 0 mm 5 mps 752 mmHg 71%
    20:00 +27°C° 0 mm 5 mps 752 mmHg 72%
    21:00 +26°C° 0 mm 4 mps 753 mmHg 73%
    22:00 +26°C° 0 mm 4 mps 754 mmHg 75%
    23:00 +26°C° 0 mm 3 mps 754 mmHg 76%

    11 December, Wednesday

    Time Temperature Precipitation Wind Pressure Humidity
    00:00 +26°C° 0 mm 3 mps 754 mmHg 78%
    01:00 +25°C° 0 mm 2 mps 754 mmHg 79%
    02:00 +25°C° 0 mm 2 mps 753 mmHg 80%
    03:00 +25°C° 0 mm 3 mps 753 mmHg 81%
    04:00 +24°C° 0 mm 3 mps 753 mmHg 83%
    05:00 +25°C° 0 mm 3 mps 753 mmHg 81%
    06:00 +25°C° 0 mm 3 mps 753 mmHg 80%
    07:00 +25°C° 0 mm 3 mps 753 mmHg 79%
    08:00 +27°C° 0 mm 3 mps 754 mmHg 71%
    09:00 +29°C° 0 mm 2 mps 754 mmHg 63%
    10:00 +31°C° 0 mm 2 mps 754 mmHg 55%
    11:00 +33°C° 0 mm 3 mps 753 mmHg 50%
    12:00 +34°C° 0 mm 4 mps 753 mmHg 46%
    13:00 +36°C° 0 mm 5 mps 752 mmHg 41%
    14:00 +35°C° 0 mm 6 mps 751 mmHg 45%
    15:00 +34°C° 0 mm 6 mps 751 mmHg 50%
    16:00 +33°C° 0 mm 7 mps 750 mmHg 54%
    17:00 +30°C° 0 mm 7 mps 751 mmHg 60%
    18:00 +29°C° 0 mm 6 mps 751 mmHg 65%
    19:00 +27°C° 0 mm 6 mps 752 mmHg 71%
    20:00 +27°C° 0 mm 5 mps 752 mmHg 73%
    21:00 +26°C° 0 mm 5 mps 753 mmHg 75%
    22:00 +26°C° 0 mm 4 mps 753 mmHg 78%
    23:00 +25°C° 0 mm 4 mps 753 mmHg 80%
    Show more